User: anonymous   Login
Location: Caltech
(34.1382°N, 118.1253°W)
Time: 16:05:33
(UTC-08:00)
Language:

Iridium 75 - Orbit

View from above orbital plane
View from above orbital plane
View from above satellite
View from above satellite

Ground track
Ground track

The orbit data is extracted from the following two-line orbital elements,

1 25346U 98032E   17323.57537843 -.00000017  00000-0 -13148-4 0  9991
2 25346  86.3964 159.2162 0001870  84.7450 275.3959 14.34221066 21943
Epoch (UTC): 19 November 2017 13:48:32
Eccentricity: 0.0001870
inclination: 86.3964°
perigee height: 776 km
apogee height: 779 km
right ascension of ascending node: 159.2162°
argument of perigee: 84.7450°
revolutions per day: 14.34221066
mean anomaly at epoch: 275.3959°
orbit number at epoch: 2194

The dashed part of the orbit path shows where the satellite is in the earth's shadow,  

DLR